Wind_Speed
11 12 12 13 13 13 13 13 13 13 14 14 14 14 14 14 14 14 14 13 14 13 14 14 13 13 14 13 13 13 13 13 13 13 13 13 13 13 14 13 12 12 12
12 12 12 13 13 14 13 13 14 14 14 14 14 14 14 13 14 13 13 13 14 14 13 14 14 14 14 14 13 13 13 13 13 13 13 13 13 13 14 14 14 13 13
11 12 12 13 13 14 14 14 14 15 14 14 14 14 14 14 15 14 13 13 13 14 14 13 14 14 14 14 14 13 13 14 13 13 13 13 13 13 13 14 14 14 14
11 11 12 12 13 14 14 14 14 14 14 14 14 14 15 14 14 14 14 14 13 14 14 14 14 14 14 14 14 14 14 14 13 13 13 14 14 14 14 14 14 14 14
11 12 12 12 13 13 13 13 14 14 14 14 14 15 15 15 15 15 15 15 14 14 14 14 14 14 14 14 14 14 14 15 14 13 14 14 14 14 14 14 14 14 14
12 12 13 13 13 13 13 14 14 14 14 14 15 15 15 15 15 15 15 15 15 15 15 15 15 15 15 14 15 15 15 15 15 14 14 14 15 15 16 15 15 14 15
13 13 14 14 14 14 14 15 14 14 14 14 15 15 15 15 15 15 15 15 16 16 15 15 16 15 15 16 16 15 16 15 15 14 14 15 15 16 16 16 16 16 15
15 15 16 16 16 16 16 16 16 16 15 16 16 16 16 16 16 16 16 16 17 17 17 17 16 16 16 16 16 16 16 15 14 14 14 15 16 16 16 17 17 17 16
16 16 17 17 17 17 17 17 17 17 17 17 17 17 17 18 18 18 17 17 18 18 17 17 16 17 17 16 16 15 16 15 15 16 16 17 17 17 17 17 17 17 17
17 17 17 17 17 18 18 18 18 18 19 19 19 19 19 19 19 18 18 17 18 18 18 18 17 17 16 17 17 17 16 16 17 18 18 18 18 18 18 18 18 17 17
19 18 18 18 18 19 19 19 19 19 19 20 20 20 20 20 20 20 19 19 19 19 18 18 18 18 18 18 18 18 17 18 19 19 19 19 18 19 19 18 18 18 18
18 18 19 19 19 19 19 20 20 20 20 20 20 20 20 20 20 20 20 20 20 19 18 19 19 19 19 19 19 19 19 19 19 19 20 20 20 19 19 19 18 18 18
18 18 19 19 19 19 20 20 20 20 20 20 20 20 20 20 21 20 20 20 20 19 19 19 20 20 20 20 20 20 20 21 21 21 21 20 20 19 19 19 19 18 19
18 18 19 19 20 20 21 20 19 20 20 20 20 20 20 20 20 20 21 21 21 21 20 20 20 20 20 20 20 20 21 22 22 22 21 21 20 20 20 19 19 19 20
19 20 20 20 20 20 20 20 20 21 21 20 20 20 21 21 21 21 21 22 22 22 21 21 21 20 20 20 20 21 21 21 22 22 22 21 20 20 20 20 20 20 20
21 21 21 21 21 21 21 21 22 22 21 21 20 20 21 21 22 22 22 22 22 22 21 21 21 21 21 21 21 22 22 22 23 22 22 21 20 21 21 21 21 21 20
22 22 22 22 22 22 22 22 22 22 21 21 21 21 21 21 21 21 22 22 22 22 21 20 21 22 22 22 23 23 23 23 23 22 22 22 22 22 22 22 21 21 21
22 22 23 23 23 23 23 22 22 22 22 21 21 22 21 21 21 21 21 21 22 21 21 21 22 22 23 23 23 23 23 24 23 23 23 24 23 23 23 22 22 22 22
23 23 23 23 24 24 24 23 22 22 21 21 21 21 21 21 21 21 22 22 22 22 22 22 22 23 24 24 25 25 24 24 24 24 24 24 24 24 23 23 22 22 23
24 24 24 24 24 24 24 24 23 22 21 21 20 20 20 21 21 22 22 22 22 23 23 23 24 24 24 24 24 24 24 24 24 24 23 23 23 23 23 23 23 24 24
24 25 25 24 24 24 24 23 22 22 22 21 20 20 21 21 22 22 22 23 23 24 24 24 24 24 24 24 25 25 25 24 24 24 24 24 24 23 23 24 24 25 25
25 25 25 24 24 23 23 22 22 22 22 21 21 21 21 22 23 23 24 24 25 25 25 25 24 25 25 26 26 25 25 25 25 25 25 25 25 25 25 25 26 26 26
26 25 25 25 24 24 23 23 22 22 22 22 22 22 22 22 23 24 24 25 26 26 26 26 25 25 25 25 25 25 25 26 26 25 26 26 26 26 27 26 26 27 27
26 26 25 25 25 24 24 23 23 23 23 23 23 23 23 23 24 24 25 26 26 27 26 26 26 25 26 26 25 25 25 26 26 25 25 26 26 26 27 27 28 28 28
26 26 26 25 25 24 24 24 24 24 24 24 24 24 24 24 24 25 26 26 26 26 26 26 26 26 26 26 27 27 26 26 26 26 26 26 26 26 27 28 29 29 29
26 26 26 26 25 25 25 25 25 25 24 24 24 24 25 25 25 26 26 26 26 26 26 27 27 27 27 27 27 27 27 27 27 26 26 27 27 27 28 29 29 28 29
Wind_Direction
289 290 288 288 289 288 286 282 278 276 276 276 275 273 271 272 273 274 269 267 268 269 270 274 279 278 279 283 284 284 284 282 283 283 285 287 286 285 283 282 282 286 285
290 291 290 290 291 290 287 284 280 279 278 276 274 274 272 272 273 272 268 265 266 267 267 270 274 276 277 279 280 280 283 285 284 282 283 287 288 288 286 284 284 284 284
290 290 290 291 292 291 288 285 283 280 277 275 274 274 273 270 270 270 270 268 267 268 269 271 273 275 277 278 279 279 280 282 283 282 282 284 284 289 288 286 285 285 284
296 294 293 293 293 292 290 288 285 280 276 274 273 272 271 270 268 269 271 270 270 268 269 272 274 274 275 277 277 278 279 279 280 281 283 284 284 285 286 287 287 285 285
300 299 296 296 296 294 291 290 287 284 279 275 272 273 273 273 269 269 273 273 272 272 270 272 274 273 274 274 274 274 277 276 276 279 282 284 284 284 284 286 287 285 285
301 302 300 298 299 298 294 291 287 284 280 276 274 274 276 276 271 270 270 272 272 272 271 272 273 271 272 273 273 272 276 274 274 276 280 282 283 286 286 285 286 285 285
299 300 299 298 297 296 294 291 287 282 278 276 275 276 277 278 275 271 270 270 271 271 273 273 273 271 272 271 272 272 275 275 274 276 280 283 283 284 286 286 286 286 286
297 297 296 294 292 290 291 292 287 283 279 278 277 275 275 276 275 273 272 271 272 271 271 270 272 271 269 269 270 270 272 272 273 275 281 285 284 284 284 285 285 285 285
299 299 297 295 293 290 289 291 288 283 280 278 277 274 274 274 274 272 271 271 271 271 271 270 270 269 269 270 271 272 272 270 272 276 280 283 284 285 285 285 285 286 285
299 298 298 296 294 292 290 290 286 282 279 277 278 275 274 273 273 273 271 270 270 271 271 269 269 270 269 270 270 270 270 270 273 277 280 283 282 283 286 285 284 285 286
298 297 298 297 296 294 291 290 288 284 281 279 278 276 276 275 275 272 271 271 270 270 270 267 267 268 269 268 268 267 268 271 272 274 278 282 283 283 283 284 283 284 285
299 298 298 297 296 295 292 290 288 285 282 279 278 276 276 276 274 272 270 270 270 270 270 269 268 267 267 268 268 267 270 271 273 275 278 280 283 283 282 281 282 283 284
300 299 299 299 297 296 295 293 289 285 282 280 278 277 276 275 273 270 270 269 268 269 271 272 270 269 268 268 269 269 270 271 274 276 279 281 283 283 281 280 281 283 285
300 301 300 299 299 298 296 295 293 289 284 280 278 276 275 274 273 271 271 270 270 271 271 271 272 270 270 270 272 272 271 272 275 277 279 280 282 281 280 279 281 284 285
300 302 300 299 299 298 296 295 292 290 286 281 279 275 274 274 272 271 272 270 270 269 270 269 270 270 271 272 273 274 275 274 276 277 279 279 280 282 281 280 281 283 283
298 301 301 300 299 298 296 294 291 289 286 283 280 276 274 274 272 270 272 271 270 269 269 269 270 271 273 274 275 276 275 276 277 277 277 278 279 280 279 280 281 282 282
296 298 300 299 299 299 298 295 293 290 287 285 281 278 276 276 274 271 271 271 269 269 269 270 271 271 271 273 274 275 275 277 277 275 276 277 279 279 279 279 279 281 281
294 296 299 300 299 299 298 297 296 292 287 283 280 279 276 276 275 276 275 273 271 271 272 273 271 270 271 272 272 273 274 275 277 276 276 277 278 277 277 277 278 280 281
292 294 296 298 300 298 297 297 295 293 290 285 281 278 276 275 275 276 276 276 274 274 274 274 273 271 270 271 272 273 274 275 276 276 276 276 276 275 274 275 277 279 280
292 292 294 296 298 299 297 294 291 290 288 287 284 280 276 276 276 276 277 277 277 276 275 274 274 273 272 272 272 274 274 274 275 275 276 277 277 275 273 274 275 276 277
292 293 293 295 296 298 298 295 290 287 287 285 284 282 280 279 279 279 278 278 279 278 277 275 274 272 271 271 273 274 274 274 274 275 276 276 276 276 274 275 276 277 277
293 293 293 294 295 296 296 295 293 289 287 285 284 284 283 282 281 280 280 280 280 279 278 277 274 273 272 271 272 273 274 274 274 274 274 273 274 275 277 276 277 277 277
291 291 291 292 293 293 293 293 292 291 288 283 283 284 284 283 282 282 281 280 281 280 278 276 275 273 273 273 272 273 273 274 274 274 273 274 274 275 276 276 277 277 276
291 291 291 292 291 291 291 291 290 289 289 288 284 283 284 285 284 284 283 282 281 280 277 275 275 274 274 274 273 275 274 274 274 274 274 275 275 275 275 275 275 275 276
291 293 293 292 291 291 291 290 290 289 288 289 290 286 286 286 285 285 284 282 281 279 277 276 274 274 275 274 274 274 274 274 274 274 274 275 275 275 275 276 276 276 276
289 291 292 291 289 289 290 290 291 290 289 289 290 289 288 287 286 286 285 283 281 278 277 276 275 274 274 275 275 273 274 274 275 275 276 277 276 275 274 275 276 274 275
Height
5856 5854 5853 5852 5852 5851 5850 5849 5849 5848 5848 5847 5847 5847 5846 5846 5846 5846 5846 5845 5845 5846 5846 5846 5845 5845 5844 5844 5843 5842 5842 5841 5841 5840 5840 5839 5839 5838 5838 5837 5837 5836 5836
5853 5852 5851 5850 5849 5847 5846 5845 5844 5844 5843 5843 5843 5843 5843 5842 5842 5842 5842 5842 5842 5842 5842 5842 5842 5841 5841 5840 5840 5839 5838 5838 5837 5837 5837 5836 5836 5835 5835 5834 5834 5833 5833
5850 5849 5848 5847 5845 5844 5843 5842 5841 5840 5840 5839 5839 5839 5839 5839 5838 5838 5838 5838 5838 5838 5838 5838 5838 5838 5837 5837 5836 5835 5835 5834 5834 5834 5834 5833 5833 5832 5832 5831 5831 5830 5829
5847 5846 5845 5844 5842 5841 5839 5838 5837 5836 5836 5835 5835 5835 5835 5835 5834 5835 5835 5835 5835 5834 5834 5834 5834 5834 5833 5833 5832 5832 5831 5831 5831 5830 5830 5830 5829 5829 5829 5828 5827 5826 5826
5844 5843 5842 5840 5839 5837 5836 5834 5833 5832 5832 5831 5832 5831 5831 5831 5831 5831 5831 5831 5831 5831 5830 5830 5830 5830 5830 5829 5829 5828 5828 5827 5827 5827 5826 5826 5826 5825 5825 5824 5824 5823 5822
5841 5839 5838 5837 5835 5834 5832 5831 5830 5829 5828 5828 5828 5827 5827 5827 5827 5827 5827 5827 5827 5827 5827 5826 5826 5826 5826 5825 5825 5825 5824 5824 5823 5823 5823 5823 5822 5822 5821 5820 5820 5819 5818
5837 5836 5834 5833 5831 5830 5829 5827 5826 5825 5824 5824 5824 5823 5823 5823 5823 5823 5823 5823 5823 5823 5822 5822 5822 5822 5821 5821 5821 5820 5820 5820 5820 5820 5819 5819 5818 5818 5817 5816 5816 5815 5814
5834 5832 5830 5829 5827 5826 5824 5823 5822 5821 5820 5820 5819 5819 5819 5819 5819 5819 5818 5818 5818 5818 5818 5818 5817 5817 5817 5817 5816 5816 5816 5816 5816 5816 5815 5815 5814 5813 5813 5812 5811 5811 5810
5830 5828 5826 5824 5822 5821 5820 5818 5817 5816 5816 5815 5815 5815 5814 5814 5814 5814 5814 5813 5813 5813 5813 5813 5813 5813 5812 5812 5812 5812 5812 5812 5811 5811 5811 5810 5809 5809 5808 5807 5807 5806 5805
5826 5823 5821 5819 5818 5816 5815 5814 5813 5812 5811 5810 5810 5810 5809 5809 5809 5809 5809 5808 5808 5808 5808 5808 5808 5808 5808 5807 5808 5807 5807 5807 5807 5806 5806 5805 5805 5804 5803 5802 5801 5801 5800
5821 5819 5817 5815 5813 5812 5810 5809 5807 5806 5805 5805 5804 5804 5804 5804 5804 5803 5803 5803 5803 5803 5803 5803 5803 5803 5803 5803 5803 5803 5802 5802 5802 5801 5801 5801 5800 5799 5798 5797 5796 5795 5794
5816 5814 5812 5811 5809 5807 5805 5804 5802 5801 5800 5799 5799 5798 5798 5798 5798 5798 5798 5798 5798 5797 5797 5798 5798 5798 5798 5798 5798 5798 5797 5797 5797 5797 5796 5795 5795 5794 5793 5792 5791 5790 5789
5812 5810 5808 5806 5804 5802 5800 5798 5796 5795 5794 5793 5793 5793 5792 5792 5792 5792 5792 5792 5792 5792 5792 5792 5792 5792 5792 5792 5792 5792 5792 5792 5792 5791 5791 5790 5789 5788 5787 5786 5785 5784 5783
5808 5805 5803 5801 5799 5797 5795 5792 5791 5789 5788 5788 5787 5787 5787 5786 5786 5786 5786 5786 5787 5787 5787 5787 5786 5787 5787 5787 5787 5787 5787 5786 5786 5785 5785 5784 5783 5782 5781 5781 5780 5779 5778
5803 5801 5799 5796 5794 5792 5790 5788 5786 5784 5783 5782 5781 5781 5781 5781 5781 5781 5781 5780 5780 5781 5781 5781 5781 5781 5781 5781 5781 5781 5781 5780 5780 5779 5779 5778 5777 5776 5776 5775 5774 5773 5772
5798 5796 5794 5791 5789 5787 5784 5782 5780 5779 5777 5776 5776 5775 5775 5775 5774 5774 5774 5774 5774 5774 5774 5775 5775 5775 5775 5775 5775 5775 5774 5774 5774 5773 5772 5772 5771 5770 5769 5769 5768 5767 5766
5793 5791 5788 5786 5783 5781 5778 5776 5774 5772 5771 5770 5769 5769 5769 5768 5768 5768 5768 5768 5768 5768 5768 5768 5768 5768 5769 5768 5768 5768 5768 5768 5767 5766 5766 5765 5764 5764 5763 5762 5761 5761 5760
5787 5785 5783 5780 5777 5775 5772 5770 5768 5766 5765 5764 5763 5763 5762 5762 5762 5762 5762 5761 5761 5762 5762 5762 5762 5762 5762 5762 5761 5761 5761 5761 5760 5759 5759 5758 5758 5757 5756 5755 5755 5754 5753
5781 5779 5777 5774 5771 5768 5766 5764 5762 5760 5759 5758 5757 5756 5756 5756 5756 5756 5755 5755 5755 5755 5755 5755 5755 5755 5755 5754 5754 5754 5754 5753 5753 5752 5751 5751 5750 5750 5749 5749 5748 5748 5747
5775 5773 5770 5768 5765 5762 5760 5757 5756 5754 5753 5752 5751 5750 5750 5749 5749 5749 5749 5748 5748 5748 5748 5748 5747 5747 5747 5747 5747 5746 5746 5746 5745 5745 5744 5743 5743 5742 5741 5741 5741 5741 5740
5768 5766 5764 5762 5759 5756 5753 5751 5749 5748 5747 5746 5745 5744 5744 5743 5742 5742 5742 5742 5741 5741 5740 5740 5740 5739 5739 5739 5739 5738 5738 5738 5737 5737 5737 5736 5735 5735 5734 5734 5733 5733 5732
5762 5760 5757 5755 5753 5750 5747 5745 5743 5742 5740 5739 5739 5738 5737 5736 5736 5735 5735 5734 5733 5733 5732 5732 5732 5731 5731 5731 5730 5730 5730 5729 5729 5729 5729 5728 5728 5727 5726 5726 5725 5724 5724
5755 5753 5751 5748 5746 5744 5741 5739 5737 5735 5734 5733 5732 5731 5731 5730 5729 5728 5727 5726 5725 5725 5724 5724 5723 5723 5723 5722 5722 5722 5721 5721 5721 5720 5720 5719 5719 5719 5718 5717 5716 5715 5714
5748 5746 5744 5742 5740 5737 5735 5733 5731 5729 5728 5727 5726 5725 5724 5723 5722 5720 5719 5718 5717 5716 5715 5715 5715 5715 5714 5714 5714 5713 5713 5712 5712 5712 5711 5711 5710 5709 5708 5708 5707 5706 5705
5741 5739 5737 5735 5733 5731 5729 5726 5725 5723 5722 5720 5719 5718 5716 5715 5714 5713 5711 5710 5709 5708 5707 5707 5706 5706 5706 5706 5705 5704 5704 5703 5703 5702 5702 5702 5701 5700 5699 5698 5697 5696 5695
5734 5732 5730 5728 5726 5724 5722 5720 5718 5716 5715 5713 5712 5711 5709 5708 5706 5705 5704 5702 5701 5699 5698 5698 5697 5697 5697 5696 5695 5695 5694 5694 5694 5693 5693 5692 5691 5691 5690 5689 5688 5687 5686